EW3845 Weather Reports


Display with metric or nautical units.
time (UTC)temp
F
wind
direction
speed
MPH
gust
MPH
rain 1hr
in
rain 24hr
in
rain mn
in
humidity
%
barometer
mb
20260509091510 65 30 0.0 0.0 0.00 0.00 0.00 68 1017.8
20260509090007 64 32 0.0 0.0 0.00 0.00 0.00 71 1017.8
20260509084503 63 61 0.0 0.0 0.00 0.00 0.00 74 1018.0
20260509083103 61 44 0.0 0.0 0.00 0.00 0.00 78 1018.0
20260509081606 59 54 0.0 0.0 0.00 0.00 0.00 80 1018.0
20260509080050 57 34 0.0 0.0 0.00 0.00 0.00 84 1018.1
20260509080005 56 34 0.0 0.0 0.00 0.00 0.00 84 1018.0
20260509075602 56 35 0.0 0.0 0.00 0.00 0.00 84 1018.0
20260509075047 56 154 0.0 0.0 0.00 0.00 0.00 85 1018.0
20260509074600 56 19 0.0 0.0 0.00 0.00 0.00 85 1018.0
20260509074050 55 17 0.0 0.0 0.00 0.00 0.00 85 1018.1
20260509073606 55 172 0.0 0.0 0.00 0.00 0.00 85 1018.1
20260509073050 54 67 0.0 0.0 0.00 0.00 0.00 86 1018.0
20260509071545 53 46 0.0 0.0 0.00 0.00 0.00 87 1018.2
20260509070040 52 35 0.0 0.0 0.00 0.00 0.00 88 1018.1
20260509064543 52 32 0.0 0.0 0.00 0.00 0.00 90 1018.0
20260509063039 51 148 0.0 0.0 0.00 0.00 0.00 90 1018.0
20260509061537 50 24 0.0 0.0 0.00 0.00 0.00 91 1018.0
20260509060040 50 167 0.0 0.0 0.00 0.00 0.00 92 1018.1
20260509054545 49 63 0.0 0.0 0.00 0.00 0.00 92 1018.0
20260509053035 48 26 0.0 0.0 0.00 0.00 0.00 92 1017.9
20260509051538 48 22 0.0 0.0 0.00 0.00 0.00 92 1017.7
20260509050037 47 22 0.0 0.0 0.00 0.00 0.00 92 1017.6
20260509044533 47 22 0.0 0.0 0.00 0.00 0.00 92 1017.5
20260509043033 47 22 0.0 0.0 0.00 0.00 0.00 92 1017.4
20260509041556 46 22 0.0 0.0 0.00 0.00 0.00 91 1017.3
20260509040033 46 22 0.0 0.0 0.00 0.00 0.00 91 1017.4
20260509034531 46 22 0.0 0.0 0.00 0.00 0.00 91 1017.4
20260509033029 46 22 0.0 0.0 0.00 0.00 0.00 90 1017.4
20260509031534 46 22 0.0 0.0 0.00 0.00 0.00 90 1017.5
20260509030025 47 22 0.0 0.0 0.00 0.00 0.00 90 1017.7
20260509024525 47 22 0.0 0.0 0.00 0.00 0.00 90 1017.7
20260509023027 47 22 0.0 0.0 0.00 0.00 0.00 90 1017.7
20260509021532 47 22 0.0 0.0 0.00 0.00 0.00 90 1017.8
20260509020039 47 22 0.0 0.0 0.00 0.00 0.00 89 1017.7
20260509014522 47 22 0.0 0.0 0.00 0.00 0.00 88 1017.7
20260509013034 47 22 0.0 0.0 0.00 0.00 0.00 88 1017.8
20260509011520 47 22 0.0 0.0 0.00 0.00 0.00 88 1017.8
20260509010018 48 22 0.0 0.0 0.00 0.00 0.00 87 1017.9
20260509004519 48 22 0.0 0.0 0.00 0.00 0.00 87 1017.8
20260509003016 48 22 0.0 0.0 0.00 0.00 0.00 86 1017.9
20260509001514 49 22 0.0 0.0 0.00 0.00 0.00 86 1017.8
20260509000012 49 22 0.0 0.0 0.00 0.00 0.00 85 1017.8
20260508234510 50 22 0.0 0.0 0.00 0.00 0.00 85 1017.9
20260508233008 50 22 0.0 0.0 0.00 0.00 0.00 84 1018.0
20260508231506 51 22 0.0 0.0 0.00 0.00 0.00 83 1017.8
20260508230004 51 22 0.0 0.0 0.00 0.00 0.00 83 1017.7
20260508224500 52 22 0.0 0.0 0.00 0.00 0.00 82 1017.7
20260508223059 53 22 0.0 0.0 0.00 0.00 0.00 81 1017.7
20260508221557 53 22 0.0 0.0 0.00 0.00 0.00 81 1017.6
20260508220055 54 22 0.0 0.0 0.00 0.00 0.00 80 1017.7
20260508214554 54 22 0.0 0.0 0.00 0.00 0.00 79 1017.7
20260508213053 54 22 0.0 0.0 0.00 0.00 0.00 77 1017.8
20260508211554 55 22 0.0 0.0 0.00 0.00 0.00 76 1017.8
20260508210052 55 27 0.0 0.0 0.00 0.00 0.00 75 1017.8
20260508204555 56 19 0.0 0.0 0.00 0.00 0.00 74 1017.7
20260508203050 56 29 0.0 0.0 0.00 0.00 0.00 73 1017.6
20260508201549 55 22 0.0 0.0 0.00 0.00 0.00 74 1017.5
20260508200106 55 22 0.0 0.0 0.00 0.00 0.00 73 1017.4
20260508194549 56 22 0.0 0.0 0.00 0.00 0.00 72 1017.4
20260508193119 57 22 0.0 0.0 0.00 0.00 0.00 72 1017.3
20260508191645 58 22 0.0 0.0 0.00 0.00 0.00 71 1017.1
20260508191545 58 22 0.0 0.0 0.00 0.00 0.00 71 1017.1
20260508191052 58 22 0.0 0.0 0.00 0.00 0.00 70 1017.1
20260508190606 59 22 0.0 0.0 0.00 0.00 0.00 70 1017.0
20260508190054 59 22 0.0 0.0 0.00 0.00 0.00 69 1017.0
20260508190012 59 22 0.0 0.0 0.00 0.00 0.00 69 1016.9
20260508185605 59 22 0.0 0.0 0.00 0.00 0.00 69 1016.9
20260508185049 60 22 0.0 0.0 0.00 0.00 0.00 68 1016.9
20260508184601 60 22 0.0 0.0 0.00 0.00 0.00 68 1016.8
20260508184050 60 22 0.0 0.0 0.00 0.00 0.00 67 1016.8
20260508183002 60 22 0.0 0.0 0.00 0.00 0.00 66 1016.6
20260508182600 61 22 0.0 0.0 0.00 0.00 0.00 65 1016.7
20260508182047 61 22 0.0 0.0 0.00 0.00 0.00 65 1016.6
20260508181600 61 22 0.0 0.0 0.00 0.00 0.00 64 1016.6
20260508181049 61 22 0.0 0.0 0.00 0.00 0.00 64 1016.6
20260508180601 61 22 0.0 0.0 0.00 0.00 0.00 64 1016.6
20260508180145 61 22 0.0 0.0 0.00 0.00 0.00 64 1016.5
20260508180044 62 22 0.0 0.0 0.00 0.00 0.00 64 1016.5
20260508175556 62 22 0.0 0.0 0.00 0.00 0.00 63 1016.4
20260508175105 62 22 0.0 0.0 0.00 0.00 0.00 62 1016.4
20260508174658 62 22 0.0 0.0 0.00 0.00 0.00 61 1016.4
20260508174555 62 22 0.0 0.0 0.00 0.00 0.00 61 1016.5
20260508174042 62 22 0.0 0.0 0.00 0.00 0.00 60 1016.4
20260508173555 63 22 0.0 0.0 0.00 0.00 0.00 60 1016.4
20260508173144 62 22 0.0 0.0 0.00 0.00 0.00 59 1016.3
20260508173042 63 22 0.0 0.0 0.00 0.00 0.00 59 1016.4
20260508172555 63 22 0.0 0.0 0.00 0.00 0.00 60 1016.3
20260508172040 63 20 0.0 0.0 0.00 0.00 0.00 59 1016.2
20260508171554 63 22 0.0 0.0 0.00 0.00 0.00 59 1016.2
20260508171501 63 22 0.0 0.0 0.00 0.00 0.00 59 1016.2
20260508171100 63 22 0.0 0.0 0.00 0.00 0.00 58 1016.2
20260508170609 63 22 0.0 0.0 0.00 0.00 0.00 58 1016.2
20260508170156 63 21 0.0 0.0 0.00 0.00 0.00 59 1016.1
20260508170054 63 21 0.0 0.0 0.00 0.00 0.00 59 1016.2
20260508165544 63 20 0.0 0.0 0.00 0.00 0.00 58 1016.2
20260508165054 63 26 0.0 0.0 0.00 0.00 0.00 56 1016.2
20260508164528 63 24 0.0 0.0 0.00 0.00 0.00 56 1016.1
20260508163028 63 27 0.0 0.0 0.00 0.00 0.00 56 1016.1
20260508161526 64 19 0.0 0.0 0.00 0.00 0.00 57 1016.2
20260508160026 64 25 0.0 0.0 0.00 0.00 0.00 56 1016.3
20260508154541 64 28 0.0 0.0 0.00 0.00 0.00 56 1016.3
20260508153025 65 29 0.0 0.0 0.00 0.00 0.00 56 1016.4
20260508151524 65 42 0.0 0.0 0.00 0.00 0.00 58 1016.4
20260508150031 64 26 0.0 0.0 0.00 0.00 0.00 59 1016.5
20260508144523 64 28 0.0 0.0 0.00 0.00 0.00 59 1016.5
20260508143023 64 24 0.0 0.0 0.00 0.00 0.00 57 1016.7
20260508141529 64 23 0.0 0.0 0.00 0.00 0.00 59 1016.7
20260508140022 64 28 0.0 0.0 0.00 0.00 0.00 60 1016.8
20260508134521 64 28 0.0 0.0 0.00 0.00 0.00 60 1016.9
20260508133039 65 25 0.0 0.0 0.00 0.00 0.00 60 1016.8
20260508131520 66 18 0.0 0.0 0.00 0.00 0.00 57 1016.8
20260508130022 67 32 0.0 0.0 0.00 0.00 0.00 60 1016.8
20260508124524 66 23 0.0 0.0 0.00 0.00 0.00 57 1016.9
20260508123031 67 32 0.0 0.0 0.00 0.00 0.00 59 1016.9
20260508121520 65 29 0.0 0.0 0.00 0.00 0.00 62 1016.9
20260508120018 63 42 0.0 0.0 0.00 0.00 0.00 63 1016.9
20260508114516 64 42 0.0 0.0 0.00 0.00 0.00 58 1017.0
20260508113020 65 44 0.0 0.0 0.00 0.00 0.00 60 1016.9
20260508111515 67 46 0.0 0.0 0.00 0.00 0.00 61 1017.0
20260508110013 67 46 0.0 0.0 0.00 0.00 0.00 62 1017.0
20260508104509 66 61 0.0 0.0 0.00 0.00 0.00 62 1017.1
20260508103008 65 156 0.0 0.0 0.00 0.00 0.00 62 1017.1
20260508101505 64 11 0.0 0.0 0.00 0.00 0.00 66 1017.1
20260508100112 62 39 0.0 0.0 0.00 0.00 0.00 68 1017.2
20260508094607 62 142 0.0 0.0 0.00 0.00 0.00 70 1017.3
20260508093055 61 22 0.0 0.0 0.00 0.00 0.00 74 1017.3
20260508092053 61 24 0.0 0.0 0.00 0.00 0.00 78 1017.3
20260508091545 60 26 0.0 0.0 0.00 0.00 0.00 77 1017.3